User: anonymous   Login
Location: Sungai Anya
(2.6167°N, 114.0500°E)
Time: 14:56:18
(UTC+00:00)
Language:

ARGOS - Orbit

View from above orbital plane
View from above orbital plane
View from above satellite
View from above satellite

Ground track
Ground track

The orbit data is extracted from the following two-line orbital elements,

1 25634U 99008A   22023.06018704 -.00000008  00000-0  15634-4 0  9993
2 25634  98.4032  44.7471 0010643  27.9430 332.2316 14.19414457186908
Epoch (UTC): 23 January 2022 01:26:40
Eccentricity: 0.0010643
inclination: 98.4032°
perigee height: 819 km
apogee height: 835 km
right ascension of ascending node: 44.7471°
argument of perigee: 27.9430°
revolutions per day: 14.19414457
mean anomaly at epoch: 332.2316°
orbit number at epoch: 18690

The dashed part of the orbit path shows where the satellite is in the earth's shadow,  

DLR